Regional Weather Roundup
Issued by NWS

Home | Current Version | Previous Version | Text Only | Print | Product List | Glossary On
Versions: 1 2 3 4 5 6 7 8 9 10 11 12 13 14 15 16 17 18 19 20 21 22 23 24 25 26 27 28 29 30 31 32 33 34 35 36 37 38 39 40 41 42 43 44 45 46 47 48 49 50
000
ASUS43 KMKX 240921
RWRWI

WISCONSIN REGIONAL WEATHER ROUNDUP
NATIONAL WEATHER SERVICE MILWAUKEE/SULLIVAN WI
400 AM CDT THU APR 24 2014

NOTE: "FAIR" INDICATES FEW OR NO CLOUDS BELOW 12,000 FEET WITH NO
SIGNIFICANT WEATHER AND/OR OBSTRUCTIONS TO VISIBILITY.

WIZ001-002-006>008-014>016-023>028-241000-
NORTHWEST WISCONSIN

CITY           SKY/WX    TMP DP  RH WIND       PRES   REMARKS
SUPERIOR ARPT  CLOUDY    34  34  99 NE7       29.99F FOG     WCI  28
ASHLAND        LGT RAIN  37  37 100 E7        30.04F WCI  32
HAYWARD        LGT RAIN  37  34  89 E8        29.98F WCI  31
SIREN          CLOUDY    40  38  89 SE9G16    29.91F WCI  35
RICE LAKE      LGT RAIN  38  36  91 E17G23    29.95F WCI  29
LADYSMITH      RAIN      38  37  95 E8        30.01F WCI  32
EAU CLAIRE     LGT RAIN  39  36  89 E15       29.94F WCI  31
MENOMONIE      CLOUDY    40  37  86 E14G23    29.93F WCI  33
NEW RICHMOND   LGT RAIN  41  39  94 SE10G17   29.89F
OSCEOLA        CLOUDY    42  40  93 E17G23    29.91F
$$

WIZ003>005-009-010-017-018-241000-
NORTH CENTRAL WISCONSIN

CITY           SKY/WX    TMP DP  RH WIND       PRES   REMARKS
WOODRUFF       LGT SNOW  34  31  89 SE9       30.05F WCI  27
RHINELANDER    LGT SNOW  33  31  92 E9        30.07F FOG     WCI  25
EAGLE RIVER    CLOUDY    36  29  77 S5        30.07S WCI  32
LAND O LAKES   CLOUDY    38  22  52 S7        30.07S WCI  33
PHILLIPS       CLOUDY    33  32  95 E9        30.02F WCI  26
TOMAHAWK       FLURRIES  32  31  95 CALM      30.04F
MEDFORD        CLOUDY    36  22  56 E9        30.00F WCI  29
MERRILL        CLOUDY    34  31  88 E3        30.04F
$$

WIZ029-030-035-036-043>047-241000-
CENTRAL WISCONSIN

CITY           SKY/WX    TMP DP  RH WIND       PRES   REMARKS
WAUSAU         CLOUDY    39  19  44 E8        30.03F WCI  33
MOSINEE        CLOUDY    37  12  35 E7        30.05F WCI  32
MARSHFIELD     LGT RAIN  35  27  72 E10       30.01F WCI  27
STEVENS POINT  CLOUDY    38  15  39 E8        30.03F WCI  32
WAUPACA        CLOUDY    43  19  39 E6        30.08F
WAUTOMA        LGT RAIN  35  28  76 E5        30.06F WCI  31
WISC RAPIDS    LGT RAIN  34  29  82 E6        30.04F WCI  29
CAMP DOUGLAS   CLOUDY    36  36 100 E12       30.01F WCI  27
$$

WIZ011>013-019>022-031-037>040-048>050-241000-
NORTHEAST WISCONSIN

CITY           SKY/WX    TMP DP  RH WIND       PRES   REMARKS
ANTIGO         CLOUDY    36  19  50 E10       30.06F WCI  29
STURGEON BAY   CLOUDY    37  21  52 SE6       30.11S WCI  33
GREEN BAY      CLOUDY    41  24  51 NE9       30.11R
MANITOWOC      CLOUDY    40  26  57 CALM      30.11S
APPLETON       CLOUDY    39  23  52 S6        30.09S WCI  35
CLINTONVILLE   CLOUDY    41  23  48 CALM      30.09S
OSHKOSH        CLOUDY    40  20  44 SE3       30.08F
$$

WIZ032>034-041-042-053>061-241000-
SOUTHWEST WISCONSIN

CITY           SKY/WX    TMP DP  RH WIND       PRES   REMARKS
LA CROSSE      LGT RAIN  40  35  83 SE14      29.93F WCI  32
SPARTA         RAIN      38  36  92 E12       29.99F WCI  30
VIROQUA        CLOUDY    37  37 100 E15G22    29.93F WCI  27
BOSCOBEL       LGT RAIN  41  35  79 E7        29.96F
PRAIRIE DU CHI LGT RAIN  41  35  80 E14       29.91F
PLATTEVILLE    MOCLDY    40  34  78 E15       29.96S WCI  31
$$

WIZ056-057-062-063-064-067-068-241000-
SOUTH CENTRAL WISCONSIN

CITY           SKY/WX    TMP DP  RH WIND       PRES   REMARKS
BARABOO/DELLS  LGT RAIN  35  32  90 E12       30.00S WCI  27
LONE ROCK      LGT RAIN  39  34  82 E13       29.99F WCI  31
WATERTOWN      LGT RAIN  34  29  82 E8        30.05F WCI  27
MADISON        LGT RAIN  36  30  79 E14       30.02F WCI  27
MIDDLETON      CLOUDY    38  32  80 SE9       30.02S WCI  31
MONROE         CLOUDY    37  35  95 E14       29.99F WCI  28
JANESVILLE     CLOUDY    37  30  75 E10       30.02F WCI  30
$$

WIZ051-052-058>065-066-070>072-241000-
SOUTHEAST WISCONSIN

CITY           SKY/WX    TMP DP  RH WIND       PRES   REMARKS
MILWAUKEE      CLOUDY    39  28  64 NW3       30.10F
WAUKESHA       RAIN      34  28  80 CALM      30.10F
MILWAUKEE/TIMM LGT RAIN  36  25  64 CALM      30.11S
RACINE         LGT RAIN  37  33  85 CALM      30.11F
BURLINGTON     CLOUDY    34  31  86 NE6       30.07F WCI  29
KENOSHA        CLOUDY    37  33  85 CALM      30.10F
FOND DU LAC    LGT RAIN  39  23  52 S8        30.09F WCI  33
SHEBOYGAN      CLOUDY    38  27  64 CALM      30.10R
WEST BEND      RAIN      37  18  44 CALM      30.10F
JUNEAU         LGT RAIN  35  25  66 E10       30.07F WCI  27
$$

LSZ147-162-241000-
LAKE SUPERIOR

STATION/POSITION TIME  TEMP    WIND        PRES    WAVE
                       AIR SEA DIR/SP/G            HT/PER
                 (UTC) (F)     (DEG/KT/KT) (MB)    (FT/S)
DEVILS ISLAND    0900   39     160/  7/  8 1018.3F
PORT WING        0800   34      30/  7/  9 1017.3
SAXON HARBOR     0840           CALM  /  1 1017.6S
$$

LMZ867-665-643>646-241000-
LAKE MICHIGAN

STATION/POSITION TIME  TEMP    WIND        PRES    WAVE
                       AIR SEA DIR/SP/G            HT/PER
                 (UTC) (F)     (DEG/KT/KT) (MB)    (FT/S)
NORTHPORT PIER   0800   36     110/  2/  3 1020.0S
SISTER BAY       0823   38     150/  3/  6   N/A
KEWAUNEE LAKESHO 0800   38      40/  4/  4 1019.9F
SHEBOYGAN LAKESH 0900   42      60/  2/  2 1019.9S
PORT WASHINGTON  0800   41      CALM  /  5 1020.3R
MILWAUKEE LAKESH 0900   40     310/  1/  2   N/A
KENOSHA   LAKESH 0900   38     290/  4/  5   N/A
$$

TC  - TEMPERATURE IN CELSIUS
VSB - VISIBILITY IN STATUTE MILES
WCI - WIND CHILL INDEX
HX  - HEAT INDEX




USA.gov is the U.S. government's official web portal to all federal, state and local government web resources and services.